Location: Ergnies
(50.0854°N, 2.0375°E)
Time: 11:10:37
(UTC+00:00)

SMAP - Pass Details

Date: 14 January 2026
Orbit: 681 x 683 km, 98.1° (Epoch: 11 February)

Event Time Altitude Azimuth Distance (km) Brightness Sun altitude
Rises 06:05:31 0° 16° (NNE) 3,057 6.4 -15.4°
Reaches altitude 10° 06:07:48 10° 20° (NNE) 2,137 5.7 -15.1°
Maximum altitude 06:12:26 63° 102° (ESE) 763 3.6 -14.4°
Drops below altitude 10° 06:17:02 10° 184° (S) 2,119 5.8 -13.7°
Sets 06:19:17 0° 187° (S) 3,029 6.5 -13.3°
